Skip Page Navigation
NASA JPL Caltech
NASA Logo - Jet Propulsion Laboratory + View the NASA Portal
+ Center for Near-Earth Object Studies
JPL Home Earth Solar System Stars & Galaxies Technology
JPL Solar System Dynamics
BODIES ORBITS EPHEMERIDES TOOLS PHYSICAL DATA DISCOVERY FAQ SITE MAP
IMPORTANT: The SSD Announcement email list is now available. Major changes are coming in the near future, including possible hostname and/or URL changes. To be notified of such changes, subscribe to this email list.

Please visit this page for more details.


JPL Small-Body Database Browser
Search: [ help ]  
300436 (2007 TF34)
Classification: Main-belt Asteroid          SPK-ID: 2300436
Ephemeris | Orbit Diagram | Orbital Elements | Mission Design | Physical Parameters | Discovery Circumstances ]

[ show orbit diagram ]
Orbital Elements at Epoch 2458600.5 (2019-Apr-27.0) TDB
Reference: JPL 10 (heliocentric ecliptic J2000)
 Element Value Uncertainty (1-sigma)   Units 
e .1942009012617029 5.8775e-07  
a 2.534980801126804 3.9025e-08 au
q 2.042685244866865 1.5193e-06 au
i .807758080169368 1.6309e-05 deg
node 175.4868808035313 0.00088422 deg
peri 191.8887402939217 0.00089255 deg
M 325.7779193729204 0.00010326 deg
tp 2458740.640721162041
(2019-Sep-14.14072116)
0.00041987 TDB
period 1474.213685839239
4.04
3.4042e-05
9.32e-08
d
yr
n .2441979771711721 5.639e-09 deg/d
Q 3.027276357386744 4.6604e-08 au
  Orbit Determination Parameters
   # obs. used (total)      126  
   data-arc span      8734 days (23.91 yr)  
   first obs. used      1995-11-27  
   last obs. used      2019-10-26  
   planetary ephem.      DE431  
   SB-pert. ephem.      SB431-N16  
   condition code      0  
   norm. resid. RMS      .52355  
   source      ORB  
   producer      Otto Matic  
   solution date      2019-Nov-08 07:20:17  

Additional Information
 Earth MOID = 1.04065 au 
 Jupiter MOID = 2.43155 au 
 T_jup = 3.422 
[ show covariance matrix ]

Ephemeris | Orbit Diagram | Orbital Elements | Mission Design | Physical Parameters | Discovery Circumstances ]

Physical Parameter Table
Parameter Symbol Value Units Sigma Reference Notes
absolute magnitude H 18.0   n/a MPO372838  

300436 (2007 TF34)          Discovered 2007-Oct-06 by Spacewatch at Kitt Peak
Reference: 20111012/Numbers.arcLast Updated: 2011-10-13

Alternate Designations
 2007 TF34 = 2007 TM417 
Ephemeris | Orbit Diagram | Orbital Elements | Mission Design | Physical Parameters | Discovery Circumstances ]
ABOUT SSD CREDITS/AWARDS PRIVACY/COPYRIGHT GLOSSARY LINKS
FirstGov
(server date/time)  
NASA Home Page
Site Manager:   Ryan S. Park
Webmaster  Alan B. Chamberlin